CYGFM04

Last updated on Sat Aug 15 2026 00:02:40 GMT+0000 (Coordinated Universal Time)

1 41885U 16078B 26226.33027122 .00023017 00000+0 22857-3 0 9995 2 41885 34.9305 199.3817 0003240 6.7384 353.3385 15.64741601538109
UTC large
Height (km)
Speed (km/s)
/
Latitude / Longitude
Inclination (degrees)
Orbital Period (minutes)
Azimuth
Elevation
Range (km)
Doppler Factor

Next 0 passes for location: London (51.5072 / 0.1276)

No passes found over London.
CYGFM04